Helicity
27 32 46 46 46 44 38 36 37 27 27 -4 6 -1 -6 -10 -12 21 25 27 28 32 42 48 55 69 81 83 84 99 112 132 124 159 156 96 109 122 166 161 156 167 180
21 30 44 48 39 39 38 38 34 28 31 12 21 10 2 -2 11 31 29 29 27 29 41 46 55 66 66 85 109 126 121 121 126 129 107 121 127 163 171 164 191 243 206
17 22 33 42 49 55 38 41 39 30 30 38 28 23 22 16 14 27 42 56 65 71 80 84 83 74 87 98 108 117 103 99 68 87 80 70 114 123 172 169 166 151 145
8 2 0 16 26 54 55 45 50 37 36 35 30 36 36 38 35 34 46 58 78 91 99 78 79 66 60 65 62 66 59 99 125 118 90 104 93 33 66 106 104 160 137
5 8 12 30 40 54 68 63 57 51 34 27 28 39 46 52 37 43 48 63 78 94 109 105 104 121 148 109 66 82 79 71 18 37 70 70 66 73 100 69 99 145 186
22 34 55 76 90 92 91 73 62 63 51 40 42 46 49 37 34 44 35 49 62 65 71 73 74 75 95 104 103 90 69 42 47 40 61 88 91 99 79 81 91 96 97
43 72 98 117 142 154 124 105 80 76 64 61 61 56 62 58 52 62 58 57 67 66 65 64 80 72 75 78 110 155 159 155 117 69 90 81 67 62 38 58 47 65 83
55 65 123 144 189 221 159 119 89 81 69 61 65 56 64 63 64 64 61 71 86 101 94 76 80 81 76 72 98 130 161 153 136 112 100 72 47 48 54 54 41 60 68
44 67 102 187 228 243 175 138 103 96 84 77 80 72 72 69 71 68 83 99 115 123 104 97 91 85 55 44 75 75 77 92 115 118 103 122 139 141 86 53 78 67 82
82 86 84 164 219 242 223 147 128 111 105 88 103 97 97 87 73 76 85 105 105 96 103 115 128 87 91 64 58 53 74 80 68 60 60 69 94 120 149 131 87 83 88
105 118 155 228 256 282 245 166 126 138 151 152 159 145 134 123 121 101 100 95 90 89 99 106 109 112 122 127 100 84 76 62 78 81 87 95 106 100 96 93 110 108 86
116 117 134 190 235 258 237 194 160 185 149 148 169 160 148 134 117 143 185 148 124 95 105 84 108 152 178 151 89 70 64 65 86 94 94 99 104 104 96 95 95 102 119
129 125 116 147 197 218 209 211 305 236 247 210 224 195 124 124 135 188 171 176 151 119 98 98 118 150 151 134 115 72 57 87 97 106 101 91 79 67 50 53 65 66 81
132 123 113 115 145 145 113 121 127 106 115 180 112 96 84 109 113 119 134 139 128 127 100 127 106 86 94 70 68 89 100 96 85 77 71 63 60 66 76 68 81 71 80
119 108 101 97 124 130 143 132 103 131 108 99 58 75 68 102 92 99 103 102 73 63 83 71 72 73 78 82 78 68 61 63 76 71 67 64 63 61 67 61 68 73 88
102 67 50 64 95 83 95 149 198 121 132 134 137 109 133 124 109 118 105 83 78 43 64 73 82 81 72 63 62 63 68 76 77 71 70 67 62 59 61 66 67 80 94
105 78 74 81 90 87 101 94 97 158 211 193 153 126 98 90 107 124 119 116 91 50 76 84 74 58 57 59 59 60 67 78 60 66 62 53 47 52 41 58 58 59 66
88 62 60 71 69 57 56 58 62 70 82 93 118 114 116 111 100 93 102 95 85 70 66 59 53 49 50 52 50 60 65 57 55 49 53 48 44 41 47 53 57 60 48
62 72 68 51 39 28 24 29 36 43 55 66 68 73 100 111 95 79 43 60 61 47 38 46 52 55 56 52 49 40 37 45 47 46 48 46 44 43 53 51 54 38 19
63 56 39 30 15 14 4 6 9 14 27 46 56 75 76 65 64 41 23 21 23 30 31 42 56 57 56 48 40 40 38 37 40 38 42 39 35 33 39 47 35 20 20
34 22 26 27 30 27 27 31 30 21 22 30 36 49 56 39 34 30 21 23 21 28 29 38 50 55 48 38 38 37 38 36 37 35 33 33 30 27 30 30 12 12 35
19 20 19 24 25 18 16 17 14 13 11 18 20 28 29 10 18 25 28 23 34 39 42 44 41 43 40 39 40 31 33 33 36 30 28 31 26 21 20 16 9 25 31
10 18 16 18 23 32 37 25 25 19 9 15 15 28 39 26 25 25 28 36 40 46 52 47 39 48 40 36 32 33 25 25 24 28 26 31 25 21 22 19 14 24 20
1 8 16 24 34 41 47 52 45 40 21 11 12 18 16 14 12 19 34 46 54 55 58 53 43 40 51 32 29 27 30 29 32 35 32 28 25 40 28 29 27 31 16
13 11 1 1 10 18 32 47 56 63 68 54 32 41 44 32 27 29 37 52 64 63 56 48 38 35 31 29 30 23 60 72 34 53 42 31 31 37 33 33 35 25 15
31 37 27 23 24 30 41 49 70 92 89 77 68 68 79 84 85 82 91 82 83 78 70 70 46 25 23 30 33 49 106 74 55 45 40 45 44 41 39 39 45 33 29
Wind_Speed
26 32 33 35 36 41 39 42 42 46 40 46 36 27 22 26 26 22 22 26 31 35 39 45 47 41 38 32 33 38 40 44 44 45 45 40 40 42 39 35 37 37 40
27 29 32 34 34 40 39 40 42 41 46 33 47 45 41 37 33 32 29 27 26 31 37 41 44 40 39 35 35 34 40 41 43 35 36 33 37 37 32 32 38 39 39
26 26 29 32 31 38 37 39 41 43 45 47 48 49 47 43 41 35 32 31 29 29 31 32 37 39 32 30 30 27 35 34 35 40 37 35 32 27 31 33 34 35 38
23 23 24 28 29 35 37 38 40 41 43 46 46 47 47 46 44 40 38 37 33 34 31 31 30 31 29 28 32 36 33 28 29 30 30 32 30 28 31 34 39 41 39
20 18 19 22 24 29 34 35 36 38 40 41 42 43 44 44 43 42 41 40 38 38 37 35 34 32 33 33 32 33 31 29 30 31 31 33 37 39 43 39 40 37 41
17 14 15 16 19 24 29 32 32 33 36 37 39 41 43 43 42 41 39 40 39 38 37 37 36 35 36 36 35 34 35 33 34 34 36 37 42 42 42 37 33 36 37
13 10 12 12 13 18 23 26 28 29 30 33 36 39 41 43 43 43 42 41 41 40 38 37 36 36 36 36 37 38 40 40 37 33 36 37 39 41 38 37 35 32 34
21 14 9 8 10 14 17 21 23 25 26 28 31 34 37 39 40 41 41 41 40 40 39 39 38 37 36 36 37 39 42 43 42 40 40 39 38 40 40 35 33 33 34
31 34 29 10 10 10 13 15 20 22 24 25 28 30 32 34 36 37 38 39 39 39 38 37 36 36 36 36 36 37 38 40 42 41 42 43 45 44 41 36 38 38 38
39 40 35 14 8 6 12 13 18 20 21 22 25 28 30 32 33 34 36 35 35 35 36 38 38 35 35 36 35 35 36 37 38 38 40 43 45 47 47 45 43 41 39
40 41 37 29 18 9 11 13 14 16 17 19 23 27 30 32 33 34 34 33 32 32 32 33 36 37 38 37 36 34 33 34 36 38 40 42 45 47 48 47 46 45 43
40 40 38 30 21 13 13 14 14 15 16 18 20 24 28 32 33 32 32 32 33 31 32 32 35 36 39 39 37 34 34 34 36 39 42 45 47 48 48 48 47 45 44
39 39 37 32 25 19 15 14 18 17 18 22 22 23 26 29 30 29 28 29 31 31 32 33 34 35 37 38 38 37 36 37 38 40 43 45 47 48 45 45 45 44 43
38 36 34 31 28 25 21 17 17 18 18 20 20 21 25 26 28 27 28 28 27 28 30 32 34 35 36 36 37 38 39 39 39 41 43 45 47 48 48 47 47 46 45
35 34 33 32 30 28 27 24 23 25 20 16 20 22 25 27 26 24 25 25 25 25 26 28 31 33 35 37 37 37 37 38 41 42 44 47 48 48 47 46 47 46 46
32 32 32 32 31 29 27 26 31 27 24 23 24 24 28 24 23 24 25 24 24 23 27 29 30 32 33 35 36 37 37 38 40 41 45 48 48 47 45 45 45 45 45
30 31 32 31 30 29 28 28 27 29 29 28 26 24 23 22 22 23 23 24 26 27 27 28 29 30 33 35 36 36 36 36 37 41 45 46 45 44 43 45 45 43 43
30 30 31 31 32 31 31 29 28 27 26 27 28 26 26 25 22 21 22 24 27 28 27 27 28 31 33 34 34 34 33 33 35 38 41 43 43 43 43 43 43 43 41
29 30 32 33 33 33 32 32 32 31 29 27 24 25 26 26 21 20 23 26 26 27 28 29 30 31 32 33 32 31 30 31 32 33 37 39 42 43 41 40 41 39 36
29 30 31 32 32 33 34 34 35 35 32 29 26 25 24 24 22 20 21 24 26 29 31 31 30 29 29 30 30 31 29 27 26 28 32 36 40 41 39 38 38 37 34
26 27 30 32 33 34 35 36 36 36 34 31 27 23 26 25 23 24 24 26 30 34 32 30 29 26 26 27 28 29 29 27 25 26 28 31 36 38 37 33 34 33 31
25 27 29 32 33 34 34 34 35 35 34 31 29 24 22 24 26 28 30 32 32 33 32 30 31 27 23 24 24 25 25 26 26 24 24 27 31 34 32 28 29 29 29
26 28 31 32 32 34 33 33 32 31 31 29 28 26 23 21 24 26 28 31 32 32 31 30 28 25 21 22 22 23 25 25 25 23 22 24 27 29 26 23 23 23 23
26 29 32 36 36 37 33 29 28 27 28 28 26 24 24 22 24 23 26 29 27 26 26 28 27 22 22 22 23 24 25 24 23 20 20 24 25 24 20 19 18 19 20
25 27 29 36 40 42 40 34 29 28 27 28 29 25 24 27 26 22 24 24 23 26 28 28 26 22 18 19 22 25 24 21 20 22 21 24 24 21 18 16 17 18 18
31 34 37 39 41 43 44 38 31 28 27 29 31 28 25 23 22 23 23 24 25 27 28 27 25 21 20 20 19 20 18 17 17 16 22 23 24 21 17 14 15 19 18
Wind_Direction
38 23 50 49 49 42 47 40 47 40 63 351 72 99 159 172 137 52 3 324 300 291 284 279 282 289 292 297 297 296 298 300 302 303 304 312 318 312 313 316 314 317 317
53 42 41 50 58 46 50 48 48 53 43 91 54 55 71 63 4 333 347 344 335 311 295 288 286 292 293 297 297 300 299 302 304 302 311 312 317 318 319 316 312 317 321
77 73 61 56 66 50 54 53 53 46 40 41 44 45 41 26 30 12 7 1 352 342 326 314 300 299 307 309 310 304 303 316 310 311 311 319 322 322 326 326 325 326 329
93 78 74 58 64 56 52 50 52 54 52 43 34 33 30 32 32 29 25 21 8 2 344 335 331 323 329 335 320 317 324 328 334 337 332 331 341 341 334 328 319 328 329
112 86 79 69 75 66 54 51 48 48 46 44 41 33 32 26 28 31 27 25 23 20 15 5 357 358 357 356 347 342 344 346 346 345 341 338 336 332 327 328 326 335 336
121 105 73 71 74 63 57 53 44 34 37 34 33 34 32 28 27 29 35 32 25 20 18 13 9 4 3 3 3 1 353 348 346 342 344 340 335 338 334 336 340 337 337
120 106 51 65 70 57 62 57 46 36 31 32 34 35 33 34 33 33 33 34 31 24 21 17 15 13 15 16 11 8 7 4 1 2 355 349 348 349 351 352 354 354 352
20 27 38 44 44 42 44 46 36 33 32 35 31 30 30 26 28 30 29 29 26 25 25 25 25 22 20 21 19 17 15 13 12 13 12 10 8 3 2 2 6 3 0
355 349 346 17 16 22 28 29 25 19 15 16 21 26 27 24 24 25 24 23 24 25 25 23 24 23 20 16 19 18 14 14 15 16 17 15 12 5 0 360 351 347 347
344 342 342 3 13 28 10 13 4 8 12 18 16 16 20 21 17 19 21 21 20 24 27 24 18 19 14 8 10 7 6 6 10 12 13 11 9 6 1 358 353 349 346
351 346 349 353 353 1 16 9 3 2 2 4 5 2 3 3 5 4 8 17 19 18 18 17 16 17 15 10 9 11 13 16 15 9 7 3 1 359 359 359 358 354 350
352 351 354 360 8 10 3 5 1 4 1 357 357 358 2 2 2 12 18 23 28 24 20 20 19 20 17 15 19 23 22 19 11 6 3 360 357 356 359 0 1 360 360
356 354 357 2 8 6 3 3 349 350 348 344 349 345 353 5 13 22 22 23 25 27 29 30 27 25 21 18 14 11 9 6 7 6 4 2 2 3 6 5 5 6 5
4 9 16 15 17 14 16 14 7 357 353 354 358 360 348 1 3 16 17 17 23 25 34 26 28 22 16 12 9 7 7 9 10 9 6 5 4 2 2 1 359 359 358
13 18 23 27 25 22 19 9 1 349 355 2 354 351 343 352 357 12 20 19 28 31 28 17 10 6 2 2 4 7 11 12 9 6 4 3 2 2 3 4 3 1 359
20 24 30 31 31 30 26 15 5 2 6 359 358 351 345 4 19 20 21 25 30 28 9 2 360 358 360 1 1 5 7 7 7 8 7 5 4 5 6 7 6 5 4
26 28 29 29 27 20 15 9 2 359 6 6 5 9 9 16 18 22 29 22 14 6 2 1 359 0 358 358 360 1 3 9 13 11 9 9 11 12 12 11 10 8 6
26 25 25 23 19 15 10 3 1 1 360 358 357 359 359 360 10 21 20 18 7 1 1 359 357 354 353 356 360 3 11 15 14 14 14 15 16 14 13 11 10 8 9
30 27 25 22 18 16 12 9 5 1 358 358 1 356 354 356 7 11 5 359 1 355 352 350 350 351 352 355 1 6 9 11 14 17 17 17 14 11 13 12 12 14 17
33 30 23 20 17 12 8 5 2 0 359 356 352 349 353 354 357 359 359 358 355 348 342 342 347 350 354 360 4 6 8 12 17 18 16 13 11 12 13 16 18 20 26
28 25 16 11 7 3 1 360 1 2 0 359 357 357 349 348 352 352 350 348 342 335 339 340 341 349 352 355 0 4 7 11 14 13 12 12 12 12 15 24 28 32 41
11 10 3 1 358 357 356 358 356 354 352 355 351 351 348 343 341 340 339 337 340 342 342 343 339 340 347 352 357 0 3 4 4 5 7 7 10 11 17 30 36 43 50
357 355 353 354 355 351 349 348 349 350 351 352 347 348 350 345 344 343 342 338 336 339 342 345 345 347 352 354 354 354 351 350 352 357 359 1 5 8 19 30 37 47 53
354 352 349 346 347 346 346 346 346 346 345 347 347 347 348 346 340 340 339 338 341 347 349 347 345 344 347 350 353 350 347 348 351 354 354 353 356 4 18 25 31 34 38
353 351 351 347 344 342 340 339 336 338 340 339 339 339 338 333 334 338 336 337 338 339 340 342 341 337 332 334 339 345 348 351 351 350 352 348 351 357 5 13 17 18 17
356 352 348 349 348 346 343 342 343 342 340 337 333 331 327 322 320 323 325 327 327 326 329 331 332 326 325 323 321 328 337 339 343 346 343 343 346 349 352 359 4 358 1